Location: Breungeshain
(50.5000°N, 9.2000°E)
Time: 09:46:48
(UTC+00:00)

ISS - Pass Details

Date: 26 May 2017
Orbit: 402 x 409 km, 51.6° (Epoch: 24 May)

Event Time Altitude Azimuth Distance (km) Brightness Sun altitude
Rises 01:24:49 0° 286° (WNW) 2,332 -0.1 -13.3°
Reaches altitude 10° 01:27:00 10° 278° (W) 1,467 -1.2 -13.1°
Maximum altitude 01:30:03 36° 209° (SSW) 655 -3.3 -12.9°
Drops below altitude 10° 01:33:06 10° 141° (SE) 1,457 -1.2 -12.6°
Sets 01:35:15 0° 133° (SE) 2,312 -0.1 -12.4°
